SPACEBEENZ-22 (52403 NORAD) Tracking and Keplerian Element Data

This shows tracking and keplerian element data for the satellite.

Feedback or suggestion? Click here.




ElementValue
Catalog52403
NameSPACEBEENZ-22
Epoch Orbit805
Epoch Day166.49265767
Epoch Year2022
RAAN251.4354
Inclination97.45
Eccentricity0.0010601
Argument of Perigee174.6863
Mean Anonmoly185.4483
Mean Motion15.13595591
Decay Rate0.00012078
L11 52403U 22047K 22166.49265767 .00012078 00000+0 67499-3 0 9997
L22 52403 97.4500 251.4354 0010601 174.6863 185.4483 15.13595591 8058

Live tracking and technical data element details for SPACEBEENZ-22 (NORAD 52403). SPACEBEENZ-22 can be tracked NOW for your location showing map with azimuth and elevation plus other details from your city location.

Track the satellite on the map from your city or location and see movement details for azimuth, elevation, latitude, longitude, range, height, and movement on the map or in text.







IsCatalogInMostPopularTable: catalog: 52403, numindb: 1
Update: records affected: 1



GetName: 52403 SPACEBEENZ-22

Hit Count: updated at: Mon, 27 Jun 2022 05:50:55 GMT